Hourly Data Report for June 28, 2012

All times are specified in Local Standard Time (LST). Add 1 hour to adjust for Daylight Saving Time where and when it is observed.

ABBOTSFORD A
BRITISH COLUMBIA

49°01'31.000" N
122°21'36.000" W
59.10 m
1100031
71108
YXX

Download Data

Hourly Data (June 2012)
Hourly Data Report for June 28, 2012
Temp Definition
°C
Dew Point Temp Definition
°C
Rel Hum Definition
%
Wind Dir Definition
10's deg

Wind Spd Definition
km/h
Visibility Definition
km
Stn Press Definition
kPa
Hmdx Definition


Wind Chill Definition


Weather Definition


TIME
00:00
01:00 Legend Double Dagger 13.7 10.5 81 1 4 10.0 100.60     Mainly Clear
02:00 Legend Double Dagger 13.3 10.1 81 4 5 10.0 100.58     LegendNANA
03:00 Legend Double Dagger 12.8 10.0 83 36 4 10.0 100.58     LegendNANA
04:00 Legend Double Dagger 12.1 9.7 85 4 4 10.0 100.58     Mostly Cloudy
05:00 Legend Double Dagger 12.1 9.9 86 1 4 10.0 100.58     LegendNANA
06:00 Legend Double Dagger 13.6 9.5 76   0 10.0 100.61     LegendNANA
07:00 Legend Double Dagger 15.5 10.1 70   0 10.0 100.62     Mostly Cloudy
08:00 Legend Double Dagger 18.0 10.2 60   0 10.0 100.63     LegendNANA
09:00 Legend Double Dagger 19.8 10.6 55 12 6 10.0 100.62     LegendNANA
10:00 Legend Double Dagger 21.0 12.0 56 6 4 10.0 100.61     Mostly Cloudy
11:00 Legend Double Dagger 21.9 10.9 49 6 4 10.0 100.60     LegendNANA
12:00 Legend Double Dagger 23.5 12.0 48 21 9 10.0 100.58 26   LegendNANA
13:00 Legend Double Dagger 22.8 12.9 53 24 15 10.0 100.60 26   Cloudy
14:00 Legend Double Dagger 21.5 12.2 55 24 17 10.0 100.62     LegendNANA
15:00 Legend Double Dagger 20.5 11.8 57 23 14 10.0 100.68     Rain Showers
16:00 Legend Double Dagger 17.7 13.1 74 24 18 10.0 100.75     Rain Showers
17:00 Legend Double Dagger 16.5 14.2 86 20 8 10.0 100.82     Rain,Rain Showers
18:00 Legend Double Dagger 16.2 14.4 89 13 9 10.0 100.83     Rain
19:00 Legend Double Dagger 15.9 13.9 88   0 10.0 100.83     Cloudy
20:00 Legend Double Dagger 16.2 14.6 90 1 8 10.0 100.83     LegendNANA
21:00 Legend Double Dagger 15.8 14.4 91 5 10 10.0 100.89     Rain
22:00 Legend Double Dagger 15.4 14.5 94 1 5 10.0 100.92     Rain
23:00 Legend Double Dagger 14.9 14.3 96 1 12 10.0 100.93     Rain

Notes on Data Quality.

Legend

  • E = Estimated
  • M = Missing
  • NA = Not Available
  • ‡ = Partner data that is not subject to review by the National Climate Archives
Date modified: